Jacksonville Craig, FL

3:44 PM EDT on June 26, 2017 (GMT -0400)
Craig Municipal

Weather History for KCRG - January, 2013

Change the Weather History Date:

Monday, January 21, 2013

  Actual Average Record
Temperature  
Mean Temperature 59 °F -  
Max Temperature 70 °F 63 °F 82 °F (2017)
Min Temperature 48 °F 42 °F 27 °F (2009)
Degree Days  
Heating Degree Days 6    
Growing Degree Days 9 (Base 50)    
Moisture  
Dew Point 45 °F    
Average Humidity 66    
Maximum Humidity 89    
Minimum Humidity 40    
Precipitation  
Precipitation 0.00 in - - ()
Sea Level Pressure  
Sea Level Pressure 30.09 in    
Wind  
Wind Speed 2 mph (NW)    
Max Wind Speed 10 mph    
Max Gust Speed -    
Visibility 10 miles    
Events      
Averages and records for this station are not official NWS values.
T = Trace of Precipitation, MM = Missing Value Source: NWS Daily Summary

Daily Weather History Graph

Daily Weather History Graph

Search for Another Location

Airport or City:

Trip Planner

Search our weather history database for the weather conditions in past years. The results will help you decide how hot, cold, wet, or windy it might be!

Date:

Astronomy

Jan. 21, 2013 Rise Set
Actual Time 7:21 AM EST 5:53 PM EST
Civil Twilight 6:56 AM EST 6:19 PM EST
Nautical Twilight 6:27 AM EST 6:48 PM EST
Astronomical Twilight 5:58 AM EST 7:16 PM EST
Moon 1:33 PM EST (1/21) 2:48 AM EST (1/21)
Length of Visible Light 11h 22m
Length of Day
10h 31m
Waxing Gibbous, 75% of the Moon is Illuminated
Jan 21
Waxing Gibbous
Jan 26
Full
Feb 3
Last Quarter
Feb 10
New
Feb 17
First Quarter

Hourly Weather History & Observations

Time (EST) Temp. Dew Point Humidity Pressure Visibility Wind Dir Wind Speed Gust Speed Precip Events Conditions
12:53 AM 51.1 °F 46.9 °F 86% 30.12 in 10.0 mi Calm Calm - N/A   Clear
1:53 AM 50.0 °F 45.0 °F 83% 30.11 in 10.0 mi Calm Calm - N/A   Clear
2:53 AM 50.0 °F 45.0 °F 83% 30.10 in 10.0 mi Calm Calm - N/A   Clear
3:53 AM 50.0 °F 46.0 °F 86% 30.09 in 10.0 mi Calm Calm - N/A   Clear
4:53 AM 50.0 °F 46.0 °F 86% 30.07 in 9.0 mi Calm Calm - N/A   Clear
5:53 AM 48.9 °F 45.0 °F 86% 30.08 in 10.0 mi Calm Calm - N/A   Clear
6:53 AM 48.0 °F 45.0 °F 89% 30.09 in 9.0 mi Calm Calm - N/A   Mostly Cloudy
7:53 AM 51.1 °F 46.9 °F 86% 30.11 in 9.0 mi Calm Calm - N/A   Overcast
8:53 AM 55.9 °F 48.9 °F 77% 30.13 in 10.0 mi Calm Calm - N/A   Mostly Cloudy
9:53 AM 59.0 °F 48.0 °F 67% 30.13 in 10.0 mi NNW 5.8 mph - N/A   Overcast
10:53 AM 63.0 °F 46.0 °F 54% 30.14 in 10.0 mi NNW 5.8 mph - N/A   Overcast
11:53 AM 66.0 °F 44.1 °F 45% 30.13 in 10.0 mi NNW 6.9 mph - N/A   Partly Cloudy
12:53 PM 69.1 °F 45.0 °F 42% 30.08 in 10.0 mi NW 8.1 mph - N/A   Clear
1:53 PM 70.0 °F 45.0 °F 41% 30.06 in 10.0 mi NNW 10.4 mph - N/A   Clear
2:53 PM 69.1 °F 44.1 °F 40% 30.05 in 10.0 mi WNW 8.1 mph - N/A   Partly Cloudy
3:53 PM 69.1 °F 45.0 °F 42% 30.04 in 10.0 mi NW 9.2 mph - N/A   Clear
4:53 PM 66.9 °F 44.1 °F 44% 30.04 in 10.0 mi WNW 5.8 mph - N/A   Clear
5:53 PM 64.0 °F 45.0 °F 50% 30.06 in 10.0 mi NW 3.5 mph - N/A   Clear
6:53 PM 59.0 °F 48.0 °F 67% 30.07 in 10.0 mi Calm Calm - N/A   Clear
7:53 PM 55.9 °F 46.9 °F 72% 30.08 in 10.0 mi NNW 3.5 mph - N/A   Clear
8:53 PM 57.9 °F 45.0 °F 62% 30.09 in 10.0 mi NNW 4.6 mph - N/A   Clear
9:53 PM 57.9 °F 44.1 °F 60% 30.10 in 10.0 mi NNW 8.1 mph - N/A   Clear
10:53 PM 55.0 °F 43.0 °F 64% 30.11 in 10.0 mi NNW 4.6 mph - N/A   Clear
11:53 PM 55.9 °F 42.1 °F 60% 30.11 in 10.0 mi NNW 4.6 mph - N/A   Clear